This is the latest recevied weather packets stored in our database for station/object M0OAB-1. If no packets are shown the sender has not sent any weather packets the latest 10 day(s).
| Time | Temp. | Humidity | Pressure | Rain* | Wind** | Luminosity | Snow |
|---|---|---|---|---|---|---|---|
| 1778073004 | 13.33° C | 57% | 998.8 hPa | 0 mm | - | - | - |
| 1778071684 | 12.78° C | 60% | 998.7 hPa | 0 mm | - | - | - |
| 1778071204 | 12.78° C | 61% | 998.9 hPa | 0 mm | - | - | - |
| 1778070965 | 12.22° C | 66% | 998.8 hPa | 0 mm | - | - | - |
| 1778070364 | 11.67° C | 66% | 998.7 hPa | 0 mm | - | - | - |
| 1778069524 | 12.22° C | 64% | 998.8 hPa | 0 mm | - | - | - |
| 1778069284 | 12.22° C | 64% | 998.8 hPa | 0 mm | - | - | - |
| 1778069164 | 12.22° C | 65% | 998.6 hPa | 0 mm | - | - | - |
| 1778068804 | 12.22° C | 65% | 998.8 hPa | 0 mm | - | - | - |
| 1778068684 | 11.67° C | 65% | 998.7 hPa | 0 mm | - | - | - |
| 1778068324 | 12.22° C | 65% | 998.8 hPa | 0 mm | - | - | - |
| 1778067484 | 12.22° C | 60% | 998.7 hPa | 0 mm | - | - | - |
| 1778066164 | 12.22° C | 63% | 998.7 hPa | 0 mm | - | - | - |
| 1778065564 | 12.22° C | 63% | 998.8 hPa | 0 mm | - | - | - |
| 1778062924 | 12.22° C | 66% | 998.6 hPa | 0 mm | - | - | - |
| 1778062565 | 11.67° C | 66% | 998.4 hPa | 0 mm | - | - | - |
| 1778061725 | 12.22° C | 64% | 998.6 hPa | 0 mm | - | - | - |
| 1778060764 | 11.67° C | 64% | 998.6 hPa | 0 mm | - | - | - |
| 1778060524 | 11.67° C | 65% | 998.7 hPa | 0 mm | - | - | - |
| 1778059684 | 11.11° C | 67% | 998.6 hPa | 0 mm | - | - | - |
| 1778058965 | 10.56° C | 68% | 998.7 hPa | 0 mm | - | - | - |
| 1778058484 | 10.56° C | 67% | 998.8 hPa | 0 mm | - | - | - |
| 1778058364 | 11.11° C | 67% | 998.7 hPa | 0 mm | - | - | - |
| 1778057884 | 11.11° C | 69% | 998.7 hPa | 0 mm | - | - | - |
| 1778057404 | 11.11° C | 66% | 998.7 hPa | 0 mm | - | - | - |
* Rain latest hour (hover to see other rain measurements)
** Current wind speed in m/s (hover to see current wind gust speed)